TimeCDT,TemperatureF,Dew PointF,Humidity,Sea Level PressureIn,VisibilityMPH,Wind Direction,Wind SpeedMPH,Gust SpeedMPH,PrecipitationIn,Events,Conditions,WindDirDegrees,DateUTC
12:56 AM,25.0,21.0,85,30.36,10.0,Calm,Calm,-,N/A,,Clear,0,2012-10-29 05:56:00
1:56 AM,24.1,21.9,91,30.36,8.0,Calm,Calm,-,N/A,,Clear,0,2012-10-29 06:56:00
2:56 AM,23.0,21.9,96,30.36,5.0,Calm,Calm,-,N/A,,Clear,0,2012-10-29 07:56:00
3:08 AM,23.0,19.4,86,30.33,1.8,Calm,Calm,-,N/A,,Clear,0,2012-10-29 08:08:00
3:23 AM,23.0,21.2,93,30.33,3.0,Calm,Calm,-,N/A,,Clear,0,2012-10-29 08:23:00
3:36 AM,24.8,21.2,86,30.33,5.0,Calm,Calm,-,N/A,,Partly Cloudy,0,2012-10-29 08:36:00
3:56 AM,23.0,21.0,92,30.36,10.0,Calm,Calm,-,N/A,,Clear,0,2012-10-29 08:56:00
4:22 AM,21.2,21.2,100,30.33,1.5,Calm,Calm,-,N/A,,Clear,0,2012-10-29 09:22:00
4:49 AM,21.2,21.2,100,30.34,3.0,Calm,Calm,-,N/A,,Clear,0,2012-10-29 09:49:00
4:56 AM,21.9,19.9,92,30.38,7.0,Calm,Calm,-,N/A,,Clear,0,2012-10-29 09:56:00
5:23 AM,21.2,21.2,100,30.34,1.8,ENE,3.5,-,N/A,,Clear,60,2012-10-29 10:23:00
5:27 AM,23.0,21.2,93,30.34,8.0,ENE,3.5,-,N/A,,Partly Cloudy,70,2012-10-29 10:27:00
5:56 AM,21.9,19.9,92,30.38,8.0,Calm,Calm,-,N/A,,Partly Cloudy,0,2012-10-29 10:56:00
7:33 AM,19.4,17.6,93,30.34,10.0,Calm,Calm,-,N/A,,Scattered Clouds,0,2012-10-29 12:33:00
7:56 AM,21.0,18.0,88,30.39,9.0,ENE,3.5,-,N/A,,Partly Cloudy,60,2012-10-29 12:56:00
8:56 AM,28.0,25.0,88,30.40,10.0,Calm,Calm,-,N/A,,Clear,0,2012-10-29 13:56:00
9:56 AM,34.0,26.1,73,30.39,10.0,Calm,Calm,-,N/A,,Clear,0,2012-10-29 14:56:00
11:56 AM,45.0,21.9,40,30.38,10.0,Variable,3.5,-,N/A,,Clear,0,2012-10-29 16:56:00
12:56 PM,46.9,19.9,34,30.36,10.0,SSE,6.9,-,N/A,,Clear,150,2012-10-29 17:56:00
1:56 PM,48.9,19.0,31,30.34,10.0,ESE,4.6,-,N/A,,Scattered Clouds,120,2012-10-29 18:56:00
2:56 PM,50.0,18.0,28,30.32,10.0,Calm,Calm,-,N/A,,Mostly Cloudy,0,2012-10-29 19:56:00
3:56 PM,48.0,18.0,30,30.31,10.0,Calm,Calm,-,N/A,,Mostly Cloudy,0,2012-10-29 20:56:00
4:56 PM,45.0,19.9,37,30.31,10.0,Calm,Calm,-,N/A,,Overcast,0,2012-10-29 21:56:00
5:56 PM,39.0,21.9,50,30.30,10.0,North,3.5,-,N/A,,Clear,350,2012-10-29 22:56:00
7:56 PM,34.0,23.0,64,30.30,10.0,Calm,Calm,-,N/A,,Partly Cloudy,0,2012-10-30 00:56:00
8:56 PM,30.0,24.1,79,30.30,10.0,Calm,Calm,-,N/A,,Clear,0,2012-10-30 01:56:00
10:56 PM,27.0,21.0,78,30.26,10.0,Calm,Calm,-,N/A,,Clear,0,2012-10-30 03:56:00
11:56 PM,26.1,23.0,88,30.26,10.0,Calm,Calm,-,N/A,,Clear,0,2012-10-30 04:56:00